Flag for Anguilla Weather past 2 weeks in The Valley, Anguilla

Now
82 °F

Partly sunny.


Feels Like: 88 °F
Forecast: N/A
Wind: 36 mph from Southeast

Location: Juliana Airport - Saint Maarten

Current Time: Aug 27, 2015 at 5:41:39 PM

Latest Report: Aug 27, 2015 at 4:00 PM


Visibility: N/A

Pressure: 29.83 "Hg

Humidity: 74%

Dew point: 73 °F

Location of The ValleyLocation

Historic Weather in The Valley — Graph

°F

The Valley temperature yesterday

Maximum temperature yesterday: 90 °F (at 1:00 PM)
Minimum temperature yesterday: 84 °F (at 12:00 AM)
Average temperature yesterday: 86 °F

Past Weeks' High & Low Weather Summary

 TemperatureHumidityPressure
High90 °F (Aug 25, 3:00 PM)89% (Aug 16, 12:00 AM)30.07 "Hg (Aug 16, 12:00 AM)
Low79 °F (Aug 16, 5:00 AM)52% (Aug 16, 1:00 PM)29.80 "Hg (Aug 27, 4:00 AM)
Average84 °F73%29.97 "Hg
* Reported Aug 12 4:00 PM — Aug 27 4:00 PM, The Valley, Weather by CustomWeather, © 2015

Note: Actual official high and low records may vary slightly from our data, if they occured in-between our weather recording intervals... More about our weather records

Advertising

The Valley weather history for previous 24 hours

 ConditionsComfort  
Time TempWeatherWind HumidityBarometerVisibility
4:00 PM
Thu, Aug 27
82 °FPartly sunny.36 mph74%29.83 "HgN/A
3:00 PM82 °FPassing clouds.32 mph74%29.83 "HgN/A
2:00 PM81 °FScattered clouds.31 mph79%29.86 "HgN/A
1:00 PM82 °FScattered showers. Scattered clouds.24 mph74%29.86 "HgN/A
12:00 PM82 °FSprinkles. Partly sunny.24 mph74%29.89 "HgN/A
11:00 AM82 °FScattered showers. Partly sunny.20 mph84%29.89 "HgN/A
10:04 AM82 °FMixture of precip. Partly sunny.23 mph84%29.89 "Hg5 mi
10:00 AM82 °FSprinkles. Partly sunny.25 mph79%29.89 "HgN/A
9:00 AM84 °FScattered showers. Partly sunny.21 mph74%29.86 "HgN/A
8:00 AM81 °FMixture of precip. Partly sunny.21 mph84%29.86 "HgN/A
7:00 AM82 °FScattered clouds.20 mph79%29.83 "HgN/A
6:00 AM81 °FLots of rain. Partly sunny.18 mph89%29.83 "Hg1 mi
5:00 AM82 °FPassing clouds.16 mph84%29.83 "HgN/A
4:00 AM82 °FPassing clouds.21 mph79%29.80 "HgN/A
3:00 AM81 °FPassing clouds.16 mph89%29.83 "HgN/A
2:00 AM82 °FScattered showers. Passing clouds.18 mph84%29.83 "Hg5 mi
1:00 AM82 °FPassing clouds.17 mph84%29.86 "HgN/A
12:00 AM82 °FSprinkles. Passing clouds.22 mph84%29.89 "Hg6 mi
11:00 PM
Wed, Aug 26
84 °FPassing clouds.22 mph74%29.92 "HgN/A
10:00 PM84 °FPassing clouds.15 mph79%29.92 "HgN/A
9:00 PM84 °FPassing clouds.21 mph74%29.89 "HgN/A
8:00 PM84 °FPassing clouds.17 mph79%29.89 "HgN/A
7:00 PM84 °FPassing clouds.20 mph79%29.89 "HgN/A
6:00 PM86 °FScattered clouds.21 mph75%29.89 "HgN/A
5:00 PM86 °FScattered showers. Scattered clouds.18 mph79%29.86 "HgN/A
Weather by CustomWeather, © 2015

See weather overviewHow to use our weather pages